Overview Statistics Trail Chart Weather Telemetry Raw packets
 

This is the latest recevied weather packets stored in our database for station/object KG5APU. If no packets are shown the sender has not sent any weather packets the latest 10 day(s).

<< 37 38 39 40 41 42 43 >>
Time Temp. Humidity Pressure Rain* Wind** Luminosity Snow
1788067248 31.11° C 48% 1016.1 hPa 0 mm - 0 W/m² -
1788066645 31.11° C 49% 1016 hPa 0 mm - 0 W/m² -
1788066044 31.11° C 50% 1015.9 hPa 0 mm - 0 W/m² -
1788065444 31.11° C 50% 1016.2 hPa 0 mm - 0 W/m² -
1788064845 30.56° C 50% 1016.1 hPa 0 mm - 0 W/m² -
1788064239 30° C 53% 1015.8 hPa 0 mm - 0 W/m² -
1788063638 29.44° C 57% 1015.9 hPa 0 mm - 0 W/m² -
1788063036 29.44° C 55% 1015.5 hPa 0 mm - 0 W/m² -
1788062433 29.44° C 56% 1015.5 hPa 0 mm - 0 W/m² -
1788061833 30° C 54% 1015.5 hPa 0 mm - 0 W/m² -
1788061233 30.56° C 54% 1015.7 hPa 0 mm - 0 W/m² -
1788060630 30.56° C 58% 1015.4 hPa 0 mm - 0 W/m² -
1788060024 31.11° C 52% 1015.2 hPa 0 mm - 0 W/m² -
1788059421 31.67° C 48% 1015.6 hPa 0 mm - 0 W/m² -
1788058817 31.67° C 47% 1015.3 hPa 0 mm - 0 W/m² -
1788058215 32.22° C 47% 1015 hPa 0 mm - 0 W/m² -
1788057614 32.22° C 47% 1015.1 hPa 0 mm - 0 W/m² -
1788057013 32.78° C 46% 1015 hPa 0 mm - 0 W/m² -
1788056409 32.78° C 45% 1014.9 hPa 0 mm - 0 W/m² -
1788055810 32.78° C 45% 1014.8 hPa 0 mm - 0 W/m² -
1788055204 32.78° C 53% 1014.7 hPa 0 mm - 0 W/m² -
1788054601 33.33° C 50% 1014.9 hPa 0 mm - 0 W/m² -
1788053999 33.33° C 44% 1014.6 hPa 0 mm - 0 W/m² -
1788053405 33.33° C 44% 1014.4 hPa 0 mm - 0 W/m² -
1788052791 33.89° C 47% 1014.4 hPa 0 mm - 0 W/m² -

* Rain latest hour (hover to see other rain measurements)
** Current wind speed in m/s (hover to see current wind gust speed)